Weather History for KLKV - May, 2013

Change the Weather History Date:

Friday, May 3, 2013

  Actual Average (KAAT) Record (KAAT)
Temperature  
Mean Temperature 54 °F 48 °F  
Max Temperature 71 °F 63 °F 85 °F (1966)
Min Temperature 37 °F 33 °F 22 °F (1996)
Degree Days  
Heating Degree Days 11 17  
Month to date heating degree days 51  
Since 1 July heating degree days 6395  
Cooling Degree Days 0 0  
Month to date cooling degree days 0  
Year to date cooling degree days 0  
Growing Degree Days 4 (Base 50)    
Moisture  
Dew Point 22 °F    
Average Humidity 29    
Maximum Humidity 60    
Minimum Humidity 13    
Precipitation  
Precipitation 0.00 in 0.05 in 0.38 in (2003)
Month to date precipitation 0.15  
Year to date precipitation 6.33  
Sea Level Pressure  
Sea Level Pressure 30.21 in    
Wind  
Wind Speed 11 mph (North)    
Max Wind Speed 20 mph    
Max Gust Speed 26 mph    
Visibility 10 miles    
Events      
T = Trace of Precipitation, MM = Missing Value Source: NWS Daily Summary

Daily Weather History Graph

Daily Weather History Graph

Search for Another Location

Airport or City:

Trip Planner

Search our weather history database for the weather conditions in past years. The results will help you decide how hot, cold, wet, or windy it might be!

Date:

Astronomy

May. 03, 2013 Rise Set
Actual Time 5:54 AM PDT 8:03 PM PDT
Civil Twilight 5:23 AM PDT 8:34 PM PDT
Nautical Twilight 4:45 AM PDT 9:12 PM PDT
Astronomical Twilight 4:04 AM PDT 9:54 PM PDT
Moon 2:28 AM PDT (5/3) 1:57 PM PDT (5/3)
Length of Visible Light 15h 10m
Length of Day
14h 09m
Waning Crescent, 36% of the Moon is Illuminated
May 3
Waning Crescent
May 9
New
May 17
First Quarter
May 24
Full
May 31
Last Quarter

Hourly Weather History & Observations

Time (PDT) Temp. Windchill Dew Point Humidity Pressure Visibility Wind Dir Wind Speed Gust Speed Precip Events Conditions
12:15 AM 37.4 °F 31.4 °F 24.8 °F 60% 30.27 in 10.0 mi North 8.1 mph - N/A   Clear
12:35 AM 37.4 °F 31.4 °F 24.8 °F 60% 30.27 in 10.0 mi North 8.1 mph - N/A   Clear
12:55 AM 37.4 °F 32.8 °F 24.8 °F 60% 30.27 in 10.0 mi North 5.8 mph - N/A   Clear
1:15 AM 37.4 °F 32.8 °F 23.0 °F 56% 30.27 in 10.0 mi North 5.8 mph - N/A   Clear
1:35 AM 39.2 °F 33.6 °F 24.8 °F 56% 30.27 in 10.0 mi NNW 8.1 mph - N/A   Clear
1:55 AM 37.4 °F 29.8 °F 23.0 °F 56% 30.27 in 10.0 mi NNW 11.5 mph - N/A   Clear
2:15 AM 42.8 °F 37.0 °F 21.2 °F 42% 30.27 in 10.0 mi North 10.4 mph - N/A   Clear
2:35 AM 41.0 °F 38.0 °F 21.2 °F 45% 30.26 in 10.0 mi NNW 4.6 mph - N/A   Clear
2:55 AM 42.8 °F 38.6 °F 19.4 °F 39% 30.26 in 10.0 mi NNW 6.9 mph - N/A   Clear
3:15 AM 39.2 °F 35.0 °F 19.4 °F 45% 30.26 in 10.0 mi North 5.8 mph - N/A   Clear
3:35 AM 37.4 °F 30.8 °F 19.4 °F 48% 30.26 in 10.0 mi NNW 9.2 mph - N/A   Clear
3:55 AM 39.2 °F 32.5 °F 21.2 °F 49% 30.27 in 10.0 mi NNW 10.4 mph - N/A   Clear
4:15 AM 39.2 °F 33.6 °F 19.4 °F 45% 30.27 in 10.0 mi NNW 8.1 mph - N/A   Clear
4:35 AM 42.8 °F 35.4 °F 19.4 °F 39% 30.26 in 10.0 mi NNW 15.0 mph - N/A   Clear
4:55 AM 44.6 °F 38.1 °F 19.4 °F 37% 30.26 in 10.0 mi NNW 13.8 mph - N/A   Clear
5:15 AM 44.6 °F 38.8 °F 19.4 °F 37% 30.25 in 10.0 mi NNW 11.5 mph - N/A   Clear
5:35 AM 42.8 °F 36.2 °F 19.4 °F 39% 30.25 in 10.0 mi NNW 12.7 mph - N/A   Clear
5:55 AM 42.8 °F 36.6 °F 19.4 °F 39% 30.25 in 10.0 mi NW 11.5 mph - N/A   Clear
6:15 AM 39.2 °F 32.0 °F 19.4 °F 45% 30.25 in 10.0 mi NW 11.5 mph - N/A   Clear
6:35 AM 42.8 °F 37.0 °F 19.4 °F 39% 30.26 in 10.0 mi NW 10.4 mph - N/A   Clear
6:55 AM 42.8 °F 37.5 °F 21.2 °F 42% 30.26 in 10.0 mi NW 9.2 mph - N/A   Clear
7:15 AM 48.2 °F - 24.8 °F 40% 30.26 in 10.0 mi NW 5.8 mph - N/A   Clear
7:35 AM 51.8 °F - 24.8 °F 35% 30.26 in 10.0 mi North 8.1 mph - N/A   Clear
7:55 AM 55.4 °F - 19.4 °F 25% 30.26 in 10.0 mi North 13.8 mph - N/A   Clear
8:15 AM 55.4 °F - 19.4 °F 25% 30.26 in 10.0 mi North 16.1 mph 21.9 mph N/A   Clear
8:35 AM 57.2 °F - 19.4 °F 23% 30.26 in 10.0 mi North 13.8 mph 19.6 mph N/A   Clear
8:55 AM 59.0 °F - 21.2 °F 23% 30.26 in 10.0 mi North 17.3 mph 20.7 mph N/A   Clear
9:15 AM 59.0 °F - 21.2 °F 23% 30.25 in 10.0 mi North 18.4 mph 23.0 mph N/A   Clear
9:35 AM 60.8 °F - 21.2 °F 22% 30.25 in 10.0 mi North 19.6 mph 23.0 mph N/A   Clear
9:55 AM 62.6 °F - 21.2 °F 20% 30.25 in 10.0 mi North 17.3 mph 21.9 mph N/A   Clear
10:15 AM 62.6 °F - 21.2 °F 20% 30.25 in 10.0 mi North 16.1 mph 26.5 mph N/A   Clear
10:35 AM 62.6 °F - 23.0 °F 22% 30.25 in 10.0 mi North 18.4 mph 23.0 mph N/A   Clear
10:55 AM 64.4 °F - 23.0 °F 21% 30.24 in 10.0 mi North 17.3 mph 24.2 mph N/A   Clear
11:15 AM 66.2 °F - 23.0 °F 19% 30.24 in 10.0 mi NNW 16.1 mph 23.0 mph N/A   Clear
11:35 AM 66.2 °F - 23.0 °F 19% 30.23 in 10.0 mi North 17.3 mph 23.0 mph N/A   Clear
11:55 AM 68.0 °F - 23.0 °F 18% 30.22 in 10.0 mi North 16.1 mph 23.0 mph N/A   Clear
12:15 PM 69.8 °F - 21.2 °F 16% 30.22 in 10.0 mi North 18.4 mph 25.3 mph N/A   Clear
12:35 PM 68.0 °F - 21.2 °F 17% 30.22 in 10.0 mi North 19.6 mph 26.5 mph N/A   Clear
12:55 PM 69.8 °F - 21.2 °F 16% 30.22 in 10.0 mi NNW 16.1 mph 26.5 mph N/A   Clear
1:15 PM 69.8 °F - 23.0 °F 17% 30.22 in 10.0 mi North 16.1 mph 23.0 mph N/A   Clear
1:35 PM 69.8 °F - 24.8 °F 18% 30.22 in 10.0 mi NNE 17.3 mph 25.3 mph N/A   Clear
1:55 PM 69.8 °F - 24.8 °F 18% 30.21 in 10.0 mi NNE 15.0 mph 23.0 mph N/A   Clear
2:15 PM 71.6 °F - 24.8 °F 17% 30.21 in 10.0 mi North 13.8 mph 20.7 mph N/A   Clear
2:35 PM 69.8 °F - 24.8 °F 18% 30.20 in 9.0 mi NNE 13.8 mph 19.6 mph N/A   Clear
2:55 PM 69.8 °F - 24.8 °F 18% 30.19 in 10.0 mi North 13.8 mph 18.4 mph N/A   Clear
3:15 PM 71.6 °F - 24.8 °F 17% 30.18 in 10.0 mi North 11.5 mph 19.6 mph N/A   Clear
3:35 PM 69.8 °F - 23.0 °F 17% 30.17 in 10.0 mi NW 8.1 mph 18.4 mph N/A   Clear
3:55 PM 71.6 °F - 23.0 °F 16% 30.17 in 10.0 mi North 11.5 mph 20.7 mph N/A   Clear
4:15 PM 71.6 °F - 21.2 °F 15% 30.16 in 10.0 mi North 12.7 mph 18.4 mph N/A   Clear
4:35 PM 71.6 °F - 19.4 °F 14% 30.15 in 10.0 mi North 11.5 mph 19.6 mph N/A   Clear
4:55 PM 71.6 °F - 19.4 °F 14% 30.15 in 10.0 mi North 13.8 mph 20.7 mph N/A   Clear
5:15 PM 71.6 °F - 19.4 °F 14% 30.15 in 10.0 mi NNW 17.3 mph 24.2 mph N/A   Clear
5:35 PM 71.6 °F - 17.6 °F 13% 30.14 in 10.0 mi NNW 19.6 mph - N/A   Clear
5:55 PM 69.8 °F - 19.4 °F 15% 30.13 in 10.0 mi NNE 15.0 mph 18.4 mph N/A   Clear
6:15 PM 69.8 °F - 21.2 °F 16% 30.13 in 10.0 mi North 19.6 mph 26.5 mph N/A   Clear
6:35 PM 69.8 °F - 21.2 °F 16% 30.13 in 10.0 mi NNW 18.4 mph 24.2 mph N/A   Clear
6:55 PM 66.2 °F - 21.2 °F 18% 30.13 in 10.0 mi NNW 16.1 mph 23.0 mph N/A   Clear
7:15 PM 64.4 °F - 21.2 °F 19% 30.13 in 10.0 mi NNW 16.1 mph 19.6 mph N/A   Clear
7:35 PM 64.4 °F - 21.2 °F 19% 30.14 in 10.0 mi North 19.6 mph 25.3 mph N/A   Clear
7:55 PM 62.6 °F - 19.4 °F 19% 30.14 in 10.0 mi North 15.0 mph 21.9 mph N/A   Clear
8:15 PM 59.0 °F - 19.4 °F 22% 30.15 in 10.0 mi North 10.4 mph - N/A   Clear
8:35 PM 57.2 °F - 17.6 °F 21% 30.16 in 10.0 mi North 9.2 mph - N/A   Clear
8:55 PM 55.4 °F - 19.4 °F 25% 30.16 in 10.0 mi North 8.1 mph - N/A   Clear
9:15 PM 53.6 °F - 19.4 °F 26% 30.16 in 10.0 mi North 8.1 mph - N/A   Clear
9:35 PM 51.8 °F - 23.0 °F 33% 30.17 in 10.0 mi North 11.5 mph - N/A   Clear
9:55 PM 53.6 °F - 24.8 °F 33% 30.17 in 10.0 mi NNW 11.5 mph - N/A   Clear
10:15 PM 51.8 °F - 26.6 °F 38% 30.17 in 10.0 mi NNW 10.4 mph - N/A   Clear
10:35 PM 53.6 °F - 26.6 °F 35% 30.17 in 10.0 mi North 12.7 mph - N/A   Clear
10:55 PM 51.8 °F - 26.6 °F 38% 30.16 in 10.0 mi NNW 13.8 mph - N/A   Clear
11:15 PM 50.0 °F - 26.6 °F 40% 30.16 in 10.0 mi NNW 13.8 mph - N/A   Clear
11:35 PM 51.8 °F - 26.6 °F 38% 30.16 in 10.0 mi NNW 12.7 mph - N/A   Clear
11:55 PM 51.8 °F - 26.6 °F 38% 30.17 in 10.0 mi North 13.8 mph - N/A   Clear